WAT8721 LDSP-EDDS

Flight info

Callsign WAT8721
Flight time 1h 17m
Altitude 40000
Route ZDA DCT RAVNA DCT ULPIN DCT GIRDA DCT INGID DCT SBG DCT TITIG L173 DODIL T127 TEKSI TEKSI1W
Aircraft B772/H-SDE2E3FGHIJ5LORVWXY/LB1D1

Departure

Time 2026-05-04 21:38
Airport Split Saint Jerome Airport (LDSP)

Arrival

Time 2026-05-04 22:56
Airport Stuttgart Airport (EDDS)
Time Latitude Longitude Altitude Speed Heading
2026-05-04 21:02 43.53785 16.29942 64 ft 0 kts 159°
2026-05-04 21:27 43.53792 16.29939 63 ft 2 kts 160°
2026-05-04 21:27 43.53807 16.29934 63 ft 2 kts 180°
2026-05-04 21:28 43.53822 16.29937 64 ft 2 kts 196°
2026-05-04 21:28 43.53835 16.29945 64 ft 2 kts 212°
2026-05-04 21:28 43.53847 16.29958 64 ft 2 kts 229°
2026-05-04 21:28 43.53851 16.29965 64 ft 1 kts 234°
2026-05-04 21:29 43.53852 16.29966 64 ft 0 kts 234°
2026-05-04 21:30 43.53851 16.29964 63 ft 1 kts 234°
2026-05-04 21:31 43.53766 16.29808 64 ft 13 kts 233°
2026-05-04 21:31 43.53706 16.29698 65 ft 14 kts 232°
2026-05-04 21:31 43.53678 16.29646 65 ft 1 kts 242°
2026-05-04 21:32 43.53678 16.29645 65 ft 0 kts 243°
2026-05-04 21:34 43.53671 16.29595 66 ft 9 kts 281°
2026-05-04 21:34 43.53697 16.29503 67 ft 10 kts 277°
2026-05-04 21:34 43.53653 16.29370 68 ft 21 kts 232°
2026-05-04 21:34 43.53537 16.29158 71 ft 34 kts 233°
2026-05-04 21:35 43.53402 16.28915 72 ft 31 kts 232°
2026-05-04 21:35 43.53278 16.28691 68 ft 21 kts 234°
2026-05-04 21:35 43.53210 16.28619 66 ft 6 kts 213°
2026-05-04 21:35 43.53195 16.28577 66 ft 3 kts 297°
2026-05-04 21:36 43.53210 16.28577 66 ft 3 kts 42°
2026-05-04 21:36 43.53220 16.28591 66 ft 1 kts 45°
2026-05-04 21:36 43.53223 16.28594 66 ft 0 kts 48°
2026-05-04 21:37 43.53224 16.28596 66 ft 2 kts 49°
2026-05-04 21:37 43.53309 16.28747 69 ft 55 kts 52°
2026-05-04 21:38 43.53744 16.29527 67 ft 146 kts 52°
2026-05-04 21:38 43.54447 16.30816 691 ft 172 kts 54°
2026-05-04 21:38 43.54908 16.32221 1740 ft 159 kts 83°
2026-05-04 21:38 43.54833 16.33780 2136 ft 169 kts 108°
2026-05-04 21:39 43.54190 16.35120 2563 ft 179 kts 139°
2026-05-04 21:39 43.53130 16.36149 3000 ft 189 kts 145°
2026-05-04 21:39 43.52023 16.37133 3593 ft 192 kts 149°
2026-05-04 21:39 43.50865 16.38049 4250 ft 193 kts 151°
2026-05-04 21:40 43.49692 16.38945 4879 ft 195 kts 151°
2026-05-04 21:40 43.48489 16.39864 5382 ft 200 kts 151°
2026-05-04 21:40 43.47221 16.40579 5464 ft 197 kts 172°
2026-05-04 21:40 43.45860 16.40465 5594 ft 200 kts 198°
2026-05-04 21:41 43.44595 16.39429 5756 ft 224 kts 225°
2026-05-04 21:41 43.43576 16.37721 6137 ft 242 kts 232°
2026-05-04 21:41 43.42527 16.35801 6525 ft 259 kts 232°
2026-05-04 21:41 43.41408 16.33773 7018 ft 272 kts 231°
2026-05-04 21:42 43.40266 16.31720 7710 ft 275 kts 231°
2026-05-04 21:42 43.39099 16.29627 8419 ft 279 kts 231°
2026-05-04 21:42 43.37902 16.27483 9117 ft 282 kts 231°
2026-05-04 21:42 43.36789 16.25261 9802 ft 286 kts 242°
2026-05-04 21:43 43.36183 16.22665 10438 ft 293 kts 258°
2026-05-04 21:43 43.35990 16.19812 10764 ft 310 kts 269°
2026-05-04 21:43 43.36239 16.16805 11055 ft 329 kts 281°
2026-05-04 21:43 43.37006 16.13759 11390 ft 346 kts 294°
2026-05-04 21:44 43.38332 16.10892 11716 ft 364 kts 308°
2026-05-04 21:44 43.40208 16.08447 12034 ft 380 kts 323°
2026-05-04 21:44 43.42525 16.06590 12593 ft 390 kts 335°
2026-05-04 21:44 43.44992 16.05119 13316 ft 393 kts 334°
2026-05-04 21:45 43.47463 16.03398 14058 ft 396 kts 330°
2026-05-04 21:45 43.49802 16.01482 14843 ft 398 kts 327°
2026-05-04 21:45 43.52128 15.99379 15620 ft 402 kts 324°
2026-05-04 21:45 43.54429 15.97162 16390 ft 405 kts 323°
2026-05-04 21:46 43.56691 15.94880 17084 ft 409 kts 322°
2026-05-04 21:46 43.58968 15.92490 17791 ft 414 kts 322°
2026-05-04 21:46 43.61257 15.90064 18441 ft 419 kts 322°
2026-05-04 21:46 43.63564 15.87593 19148 ft 422 kts 321°
2026-05-04 21:47 43.65888 15.85077 19897 ft 424 kts 321°
2026-05-04 21:47 43.68196 15.82561 20598 ft 426 kts 321°
2026-05-04 21:47 43.70511 15.80021 21264 ft 429 kts 321°
2026-05-04 21:47 43.72840 15.77454 21936 ft 431 kts 320°
2026-05-04 21:48 43.75188 15.74859 22600 ft 434 kts 320°
2026-05-04 21:48 43.77541 15.72252 23233 ft 436 kts 320°
2026-05-04 21:48 43.79937 15.69590 23827 ft 440 kts 320°
2026-05-04 21:48 43.82317 15.66942 24416 ft 443 kts 320°
2026-05-04 21:49 43.84741 15.64241 24953 ft 448 kts 320°
2026-05-04 21:49 43.87148 15.61554 25526 ft 451 kts 320°
2026-05-04 21:49 43.89601 15.58813 26107 ft 454 kts 320°
2026-05-04 21:49 43.92063 15.56058 26611 ft 458 kts 320°
2026-05-04 21:50 43.94578 15.53242 27142 ft 462 kts 320°
2026-05-04 21:50 43.97073 15.50443 27699 ft 464 kts 320°
2026-05-04 21:50 43.99584 15.47624 28182 ft 468 kts 320°
2026-05-04 21:50 44.02139 15.44752 28627 ft 473 kts 320°
2026-05-04 21:51 44.04723 15.41844 29103 ft 477 kts 320°
2026-05-04 21:51 44.07276 15.38967 29604 ft 480 kts 320°
2026-05-04 21:51 44.09880 15.36029 30139 ft 482 kts 320°
2026-05-04 21:51 44.12454 15.33077 30856 ft 478 kts 319°
2026-05-04 21:52 44.14988 15.30149 31793 ft 470 kts 319°
2026-05-04 21:52 44.17498 15.27247 32769 ft 461 kts 318°
2026-05-04 21:52 44.19908 15.24457 33634 ft 453 kts 318°
2026-05-04 21:52 44.22339 15.21642 34398 ft 448 kts 318°
2026-05-04 21:53 44.24717 15.18883 35058 ft 445 kts 318°
2026-05-04 21:53 44.27070 15.16151 35545 ft 446 kts 318°
2026-05-04 21:53 44.29453 15.13382 36007 ft 446 kts 318°
2026-05-04 21:53 44.31843 15.10602 36530 ft 444 kts 318°
2026-05-04 21:54 44.34213 15.07844 37069 ft 441 kts 318°
2026-05-04 21:54 44.36541 15.05131 37537 ft 440 kts 318°
2026-05-04 21:54 44.38882 15.02398 37893 ft 439 kts 318°
2026-05-04 21:54 44.41246 14.99638 38203 ft 440 kts 318°
2026-05-04 21:55 44.43605 14.96879 38451 ft 441 kts 318°
2026-05-04 21:55 44.45943 14.94143 38691 ft 442 kts 318°
2026-05-04 21:55 44.48333 14.91343 38954 ft 442 kts 318°
2026-05-04 21:55 44.50670 14.88602 39233 ft 442 kts 318°
2026-05-04 21:56 44.53046 14.85811 39492 ft 442 kts 318°
2026-05-04 21:56 44.55397 14.83048 39693 ft 442 kts 318°
2026-05-04 21:56 44.57734 14.80298 39897 ft 442 kts 318°
2026-05-04 21:56 44.60099 14.77513 40087 ft 443 kts 318°
2026-05-04 21:57 44.62474 14.74712 40092 ft 444 kts 318°
2026-05-04 21:57 44.67186 14.69146 40091 ft 443 kts 318°
2026-05-04 21:58 44.72208 14.64185 40087 ft 446 kts 330°
2026-05-04 21:58 44.77837 14.60399 40091 ft 449 kts 332°
2026-05-04 21:59 44.83469 14.56658 40089 ft 448 kts 332°
2026-05-04 21:59 44.89121 14.52890 40092 ft 450 kts 332°
2026-05-04 22:00 44.94775 14.49110 40091 ft 450 kts 332°
2026-05-04 22:00 45.00455 14.45304 40093 ft 451 kts 333°
2026-05-04 22:01 45.06121 14.41497 40094 ft 451 kts 332°
2026-05-04 22:01 45.11722 14.37725 40091 ft 452 kts 332°
2026-05-04 22:02 45.17417 14.33882 40097 ft 452 kts 332°
2026-05-04 22:02 45.23120 14.30024 40093 ft 453 kts 332°
2026-05-04 22:03 45.28814 14.26164 40092 ft 453 kts 332°
2026-05-04 22:03 45.34505 14.22297 40098 ft 454 kts 332°
2026-05-04 22:04 45.40202 14.18417 40095 ft 453 kts 332°
2026-05-04 22:04 45.45900 14.14579 40095 ft 456 kts 335°
2026-05-04 22:05 45.52087 14.12256 40109 ft 460 kts 347°
2026-05-04 22:05 45.58393 14.10739 40105 ft 460 kts 348°
2026-05-04 22:06 45.64748 14.09206 40100 ft 462 kts 348°
2026-05-04 22:06 45.71063 14.07672 40095 ft 462 kts 347°
2026-05-04 22:07 45.77405 14.06125 40098 ft 462 kts 348°
2026-05-04 22:07 45.83776 14.04566 40090 ft 462 kts 348°
2026-05-04 22:08 45.90115 14.03010 40094 ft 462 kts 348°
2026-05-04 22:08 45.96429 14.01456 40094 ft 462 kts 348°
2026-05-04 22:09 46.02794 13.99885 40088 ft 464 kts 348°
2026-05-04 22:09 46.09193 13.98303 40064 ft 465 kts 348°
2026-05-04 22:10 46.15578 13.96720 40104 ft 465 kts 348°
2026-05-04 22:10 46.21947 13.95138 40108 ft 464 kts 348°
2026-05-04 22:11 46.28347 13.93544 40105 ft 464 kts 348°
2026-05-04 22:11 46.34726 13.91951 40097 ft 464 kts 348°
2026-05-04 22:12 46.41076 13.90362 40098 ft 465 kts 348°
2026-05-04 22:12 46.47466 13.88758 40091 ft 465 kts 348°
2026-05-04 22:13 46.53849 13.87153 40090 ft 465 kts 348°
2026-05-04 22:13 46.60253 13.85539 40090 ft 466 kts 348°
2026-05-04 22:14 46.66630 13.83928 40092 ft 466 kts 348°
2026-05-04 22:14 46.73039 13.82305 40087 ft 466 kts 348°
2026-05-04 22:15 46.79409 13.80688 40090 ft 466 kts 348°
2026-05-04 22:15 46.85849 13.79048 40093 ft 467 kts 348°
2026-05-04 22:16 46.92282 13.77407 40101 ft 467 kts 348°
2026-05-04 22:16 46.98657 13.75777 40097 ft 468 kts 348°
2026-05-04 22:17 47.05096 13.74126 40102 ft 468 kts 348°
2026-05-04 22:17 47.11563 13.72464 40094 ft 468 kts 348°
2026-05-04 22:18 47.17971 13.70814 40089 ft 469 kts 347°
2026-05-04 22:18 47.24375 13.68924 40072 ft 466 kts 340°
2026-05-04 22:19 47.30210 13.64850 40078 ft 461 kts 323°
2026-05-04 22:19 47.35453 13.59360 40082 ft 460 kts 322°
2026-05-04 22:20 47.40631 13.53849 40068 ft 461 kts 322°
2026-05-04 22:20 47.45851 13.48274 40069 ft 461 kts 322°
2026-05-04 22:21 47.51015 13.42742 40066 ft 461 kts 322°
2026-05-04 22:21 47.56244 13.37126 40057 ft 462 kts 322°
2026-05-04 22:22 47.61438 13.31533 40041 ft 462 kts 321°
2026-05-04 22:22 47.66648 13.25908 40026 ft 463 kts 321°
2026-05-04 22:23 47.71864 13.20262 39992 ft 463 kts 321°
2026-05-04 22:23 47.77073 13.14610 39960 ft 463 kts 321°
2026-05-04 22:24 47.82281 13.08945 39943 ft 462 kts 321°
2026-05-04 22:24 47.87461 13.03295 39936 ft 463 kts 321°
2026-05-04 22:25 47.92672 12.97597 39932 ft 463 kts 321°
2026-05-04 22:25 47.97476 12.91283 39906 ft 458 kts 307°
2026-05-04 22:26 48.00841 12.83319 39920 ft 453 kts 291°
2026-05-04 22:26 48.02719 12.74366 39901 ft 451 kts 283°
2026-05-04 22:27 48.04287 12.65239 39909 ft 451 kts 282°
2026-05-04 22:27 48.05839 12.56178 39911 ft 453 kts 285°
2026-05-04 22:28 48.07920 12.47218 39922 ft 453 kts 288°
2026-05-04 22:28 48.10010 12.38421 39926 ft 455 kts 288°
2026-05-04 22:29 48.12125 12.29423 39916 ft 453 kts 287°
2026-05-04 22:29 48.14208 12.20509 39911 ft 454 kts 287°
2026-05-04 22:30 48.16024 12.11454 39912 ft 449 kts 277°
2026-05-04 22:30 48.16723 12.02146 39911 ft 451 kts 274°
2026-05-04 22:31 48.17326 11.92829 39916 ft 450 kts 274°
2026-05-04 22:31 48.17932 11.83439 39917 ft 452 kts 275°
2026-05-04 22:32 48.19266 11.74181 39923 ft 454 kts 282°
2026-05-04 22:32 48.20788 11.65055 39924 ft 453 kts 282°
2026-05-04 22:33 48.22305 11.55894 39456 ft 448 kts 282°
2026-05-04 22:33 48.23054 11.51336 38392 ft 450 kts 282°
2026-05-04 22:33 48.23801 11.46787 37519 ft 450 kts 282°
2026-05-04 22:33 48.24538 11.42281 36717 ft 448 kts 282°
2026-05-04 22:34 48.25328 11.37727 36044 ft 449 kts 285°
2026-05-04 22:34 48.26418 11.33515 35298 ft 455 kts 292°
2026-05-04 22:34 48.27969 11.29341 34392 ft 462 kts 301°
2026-05-04 22:34 48.29941 11.25479 33392 ft 469 kts 309°
2026-05-04 22:35 48.32204 11.21925 32447 ft 473 kts 312°
2026-05-04 22:35 48.34505 11.18412 31496 ft 475 kts 312°
2026-05-04 22:35 48.36840 11.14833 30582 ft 477 kts 312°
2026-05-04 22:35 48.39144 11.11286 30058 ft 470 kts 312°
2026-05-04 22:36 48.41414 11.07780 29560 ft 464 kts 312°
2026-05-04 22:36 48.43646 11.04322 29010 ft 459 kts 312°
2026-05-04 22:36 48.45861 11.00878 28435 ft 466 kts 312°
2026-05-04 22:36 48.48134 10.97335 27839 ft 470 kts 311°
2026-05-04 22:37 48.50415 10.93765 27240 ft 466 kts 311°
2026-05-04 22:37 48.52623 10.90247 26645 ft 461 kts 311°
2026-05-04 22:37 48.54813 10.86746 26048 ft 456 kts 311°
2026-05-04 22:37 48.56967 10.83296 25443 ft 451 kts 311°
2026-05-04 22:38 48.59124 10.79839 24851 ft 447 kts 311°
2026-05-04 22:38 48.61239 10.76477 24255 ft 443 kts 311°
2026-05-04 22:38 48.63349 10.73134 23643 ft 439 kts 311°
2026-05-04 22:38 48.65480 10.69753 23043 ft 435 kts 311°
2026-05-04 22:39 48.67545 10.66472 22453 ft 431 kts 311°
2026-05-04 22:39 48.69432 10.62972 21841 ft 425 kts 302°
2026-05-04 22:39 48.70856 10.59100 21237 ft 418 kts 291°
2026-05-04 22:39 48.71787 10.54970 20650 ft 411 kts 281°
2026-05-04 22:40 48.72220 10.50727 20058 ft 404 kts 272°
2026-05-04 22:40 48.72172 10.46505 19471 ft 399 kts 263°
2026-05-04 22:40 48.71898 10.42337 18898 ft 395 kts 262°
2026-05-04 22:40 48.71603 10.38253 18317 ft 392 kts 262°
2026-05-04 22:41 48.71301 10.34250 17758 ft 389 kts 261°
2026-05-04 22:41 48.70987 10.30240 17193 ft 386 kts 261°
2026-05-04 22:41 48.70665 10.26207 16611 ft 383 kts 261°
2026-05-04 22:41 48.70338 10.22190 16026 ft 381 kts 261°
2026-05-04 22:42 48.70010 10.18218 15449 ft 378 kts 261°
2026-05-04 22:42 48.69680 10.14264 14863 ft 376 kts 261°
2026-05-04 22:42 48.69352 10.10354 14290 ft 373 kts 261°
2026-05-04 22:42 48.69226 10.06467 13720 ft 373 kts 270°
2026-05-04 22:43 48.69562 10.02519 13126 ft 372 kts 277°
2026-05-04 22:43 48.70021 9.98686 12537 ft 371 kts 278°
2026-05-04 22:43 48.70482 9.94872 11988 ft 368 kts 278°
2026-05-04 22:43 48.70941 9.91053 11414 ft 365 kts 278°
2026-05-04 22:44 48.71392 9.87285 10862 ft 363 kts 277°
2026-05-04 22:44 48.71836 9.83570 10708 ft 348 kts 277°
2026-05-04 22:44 48.72257 9.80033 10620 ft 333 kts 277°
2026-05-04 22:44 48.72655 9.76667 10498 ft 321 kts 277°
2026-05-04 22:45 48.73045 9.73358 10344 ft 310 kts 277°
2026-05-04 22:45 48.73770 9.67222 10068 ft 281 kts 278°
2026-05-04 22:45 48.74175 9.64344 9949 ft 279 kts 279°
2026-05-04 22:46 48.74585 9.61518 9725 ft 272 kts 279°
2026-05-04 22:46 48.74990 9.58758 9392 ft 266 kts 281°
2026-05-04 22:46 48.75748 9.56110 8525 ft 285 kts 297°
2026-05-04 22:46 48.76741 9.53471 7712 ft 287 kts 298°
2026-05-04 22:47 48.77694 9.50901 7311 ft 272 kts 298°
2026-05-04 22:47 48.78595 9.48439 7034 ft 257 kts 301°
2026-05-04 22:47 48.79801 9.46583 6744 ft 243 kts 332°
2026-05-04 22:47 48.81372 9.45960 6466 ft 229 kts
2026-05-04 22:48 48.82851 9.46692 6189 ft 221 kts 37°
2026-05-04 22:48 48.83794 9.48494 5776 ft 222 kts 70°
2026-05-04 22:48 48.83921 9.50820 5314 ft 227 kts 102°
2026-05-04 22:48 48.83173 9.52897 4903 ft 231 kts 136°
2026-05-04 22:49 48.81749 9.54071 4516 ft 236 kts 168°
2026-05-04 22:49 48.80120 9.54242 4146 ft 237 kts 180°
2026-05-04 22:49 48.78545 9.53722 3991 ft 225 kts 202°
2026-05-04 22:49 48.77129 9.52808 3774 ft 216 kts 204°
2026-05-04 22:50 48.75766 9.51932 3578 ft 207 kts 204°
2026-05-04 22:50 48.74404 9.51390 3407 ft 199 kts 179°
2026-05-04 22:50 48.73090 9.51844 3236 ft 191 kts 170°
2026-05-04 22:50 48.71842 9.51513 3022 ft 181 kts 220°
2026-05-04 22:51 48.71291 9.49969 2881 ft 164 kts 271°
2026-05-04 22:51 48.71610 9.48379 2648 ft 158 kts 303°
2026-05-04 22:51 48.72215 9.47005 2476 ft 154 kts 304°
2026-05-04 22:51 48.72626 9.45560 2375 ft 148 kts 284°
2026-05-04 22:52 48.72683 9.43982 2557 ft 153 kts 267°
2026-05-04 22:52 48.72466 9.42359 2681 ft 158 kts 259°
2026-05-04 22:52 48.72270 9.40732 2646 ft 156 kts 263°
2026-05-04 22:52 48.72069 9.39119 2602 ft 154 kts 259°
2026-05-04 22:53 48.71816 9.37559 2554 ft 147 kts 258°
2026-05-04 22:53 48.71572 9.36074 2452 ft 143 kts 259°
2026-05-04 22:53 48.71332 9.34646 2431 ft 144 kts 257°
2026-05-04 22:53 48.71070 9.33170 2337 ft 143 kts 258°
2026-05-04 22:54 48.70807 9.31716 2171 ft 142 kts 255°
2026-05-04 22:54 48.70515 9.30276 1978 ft 141 kts 255°
2026-05-04 22:54 48.70231 9.28866 1825 ft 140 kts 256°
2026-05-04 22:54 48.69980 9.27440 1698 ft 142 kts 257°
2026-05-04 22:55 48.69711 9.25995 1454 ft 140 kts 255°
2026-05-04 22:55 48.69441 9.24573 1253 ft 140 kts 254°
2026-05-04 22:55 48.69187 9.23232 1219 ft 117 kts 252°
2026-05-04 22:55 48.68996 9.22233 1234 ft 79 kts 253°
2026-05-04 22:56 48.68942 9.21752 1247 ft 33 kts 279°
2026-05-04 22:56 48.68998 9.21430 1257 ft 29 kts 283°
2026-05-04 22:56 48.69036 9.21134 1266 ft 26 kts 266°
2026-05-04 22:56 48.69001 9.20875 1274 ft 24 kts 254°
2026-05-04 22:57 48.68970 9.20656 1280 ft 16 kts 282°
2026-05-04 22:57 48.69027 9.20517 1285 ft 14 kts 309°
2026-05-04 22:57 48.69062 9.20381 1288 ft 15 kts 261°
2026-05-04 22:57 48.69018 9.20186 1295 ft 22 kts 251°
2026-05-04 22:58 48.68959 9.19977 1301 ft 19 kts 238°
2026-05-04 22:58 48.68895 9.19820 1304 ft 14 kts 245°
2026-05-04 22:58 48.68865 9.19696 1307 ft 9 kts 252°
2026-05-04 22:58 48.68846 9.19596 1310 ft 10 kts 254°
2026-05-04 22:59 48.68832 9.19513 1313 ft 5 kts 260°
2026-05-04 22:59 48.68834 9.19475 1314 ft 2 kts 292°
2026-05-04 22:59 48.68854 9.19449 1314 ft 6 kts 334°
2026-05-04 22:59 48.68885 9.19433 1315 ft 1 kts 344°
2026-05-04 23:00 48.68887 9.19432 1315 ft 0 kts 343°
2026-05-04 23:01 48.68846 9.19450 1314 ft 7 kts 343°